Погода в Гуще

Украина / Волынская область     51°16′43″N   23°45′05″E
темп.,
°C
ветер,
м/с
пор.,
м/с
влажн.,
%
обл.,
%
осадки,
мм/ч
давл.,
гПа
погр.,
м
7 мая, пт
пт700:00+6ююз4108523 0.3 1010181
03:00+5ю4984100 0.3 1009149
06:00+6ю4987100 0.0 1007228
09:00+7ююв61095100 2.3 1007566
12:00+10юз6108498 0.8 1005957
15:00+11зюз697936 1.4 1005911
18:00+11з3679100 0.4 1005320
21:00+8з61190100 0.4 1006513
8 мая, сб
сб800:00+6зсз6129064 0.2 1008651
03:00+4з91385100 0.3 1011842
06:00+2з81497100 0.6 1012810
09:00+4зсз81396100 1.5 1015898
12:00+6зсз81078100 0.4 10171219
15:00+7зсз71064100 0.5 10191554
18:00+8сз68595 0.1 10201255
21:00+5з22755 0.1 102113
9 мая, вс
вс900:00+3з34880 0.0 102247
03:00+3з33870 0.0 102333
06:00+2юз228552 0.0 102423
09:00+8ююз23655 0.0 1024300
12:00+13ююз4549100 0.0 10231544
15:00+15ююз56465 0.0 10231902
18:00+16ю46535 0.0 10221576
21:00+11юв487255 0.0 1022123
10 мая, пн
пн1000:00+10ююв5127615 0.0 1023266
03:00+7ююв412805 0.0 1023239
06:00+6юв4127410 0.0 1023230
09:00+12юв7136468 0.0 1023470
12:00+17юв8115572 0.0 1022913
15:00+19юв810525 0.0 10211151
18:00+19юв711615 0.0 10201081
21:00+14юв614720 0.0 1021416
11 мая, вт
вт1100:00+12юв616740 0.0 1021416
03:00+11юв716720 0.0 1021434
06:00+9юв616710 0.0 1021405
09:00+13юв815684 0.0 1021585
12:00+17юв912530 0.0 1020891
15:00+19юв911480 0.0 10181135
18:00+18юв711540 0.0 1017978
21:00+14вюв514740 0.0 1017370